Whitefield, NH

9:55 PM EST on November 20, 2017 (GMT -0500)
Mount Washington Regional

Weather History for KHIE - March, 2013

Change the Weather History Date:

Saturday, March 2, 2013

  Actual Average Record
Temperature  
Mean Temperature 30 °F -  
Max Temperature 33 °F 31 °F 48 °F (1997)
Min Temperature 26 °F 6 °F -16 °F (2001)
Degree Days  
Heating Degree Days 36    
Moisture  
Dew Point 25 °F    
Average Humidity 86    
Maximum Humidity 93    
Minimum Humidity 66    
Precipitation  
Precipitation 0.09 in - - ()
Sea Level Pressure  
Sea Level Pressure 29.69 in    
Wind  
Wind Speed 1 mph (WNW)    
Max Wind Speed 7 mph    
Max Gust Speed -    
Visibility 6 miles    
Events Snow    
Averages and records for this station are not official NWS values.
T = Trace of Precipitation, MM = Missing Value Source: NWS Daily Summary

Daily Weather History Graph

Daily Weather History Graph

Search for Another Location

Airport or City:

Trip Planner

Search our weather history database for the weather conditions in past years. The results will help you decide how hot, cold, wet, or windy it might be!

Date:

Astronomy

Mar. 02, 2013 Rise Set
Actual Time 6:21 AM EST 5:35 PM EST
Civil Twilight 5:52 AM EST 6:04 PM EST
Nautical Twilight 5:18 AM EST 6:38 PM EST
Astronomical Twilight 4:45 AM EST 7:12 PM EST
Moon 11:26 PM EST (3/2) 8:33 AM EST (3/2)
Length of Visible Light 12h 12m
Length of Day
11h 14m
Waning Gibbous, 74% of the Moon is Illuminated
Mar 2
Waning Gibbous
Mar 4
Last Quarter
Mar 11
New
Mar 19
First Quarter
Mar 27
Full

Hourly Weather History & Observations

Time (EST) Temp. Windchill Dew Point Humidity Pressure Visibility Wind Dir Wind Speed Gust Speed Precip Events Conditions
12:02 AM 28.4 °F - 26.6 °F 93% 29.66 in 6.0 mi Calm Calm - 0.00 in Snow Light Snow
12:07 AM 28.4 °F - 26.6 °F 93% 29.66 in 7.0 mi Calm Calm - 0.00 in Snow Light Snow
12:52 AM 28.9 °F - 25.0 °F 85% 29.70 in 6.0 mi Calm Calm - 0.00 in Snow Light Snow
1:52 AM 28.0 °F - 25.0 °F 88% 29.70 in 4.0 mi Calm Calm - 0.01 in Snow Light Snow
2:25 AM 28.4 °F - 24.8 °F 86% 29.65 in 2.5 mi Calm Calm - 0.00 in Snow Light Snow
2:43 AM 28.4 °F - 24.8 °F 86% 29.65 in 3.0 mi Calm Calm - 0.01 in Snow Light Snow
2:52 AM 28.0 °F - 25.0 °F 88% 29.69 in 3.0 mi Calm Calm - 0.01 in Snow Light Snow
3:52 AM 28.0 °F - 25.0 °F 88% 29.69 in 5.0 mi Calm Calm - 0.01 in Snow Light Snow
4:52 AM 28.0 °F - 26.1 °F 92% 29.70 in 6.0 mi Calm Calm - 0.00 in Snow Light Snow
5:52 AM 28.0 °F - 25.0 °F 88% 29.70 in 10.0 mi Calm Calm - 0.00 in   Overcast
6:52 AM 28.9 °F - 25.0 °F 85% 29.71 in 10.0 mi Calm Calm - N/A   Overcast
7:52 AM 28.9 °F - 25.0 °F 85% 29.72 in 10.0 mi Calm Calm - 0.01 in   Overcast
8:18 AM 28.4 °F 24.6 °F 24.8 °F 86% 29.67 in 10.0 mi South 3.5 mph - N/A   Overcast
8:47 AM 28.4 °F - 26.6 °F 93% 29.67 in 9.0 mi Calm Calm - N/A   Overcast
8:52 AM 28.9 °F 25.2 °F 26.1 °F 89% 29.71 in 10.0 mi SSW 3.5 mph - N/A   Overcast
9:12 AM 30.2 °F - 26.6 °F 86% 29.67 in 9.0 mi Calm Calm - N/A   Overcast
9:45 AM 30.2 °F - 26.6 °F 86% 29.67 in 10.0 mi Calm Calm - N/A   Overcast
9:52 AM 30.0 °F 26.5 °F 26.1 °F 85% 29.71 in 10.0 mi Variable 3.5 mph - N/A   Overcast
10:52 AM 30.9 °F - 25.0 °F 79% 29.71 in 10.0 mi Calm Calm - N/A   Overcast
11:07 AM 30.2 °F 25.4 °F 24.8 °F 80% 29.66 in 10.0 mi Variable 4.6 mph - N/A   Overcast
11:52 AM 33.1 °F 28.7 °F 25.0 °F 72% 29.70 in 10.0 mi North 4.6 mph - N/A   Overcast
12:52 PM 32.0 °F 28.7 °F 24.1 °F 73% 29.68 in 9.0 mi WNW 3.5 mph - 0.00 in   Overcast
1:52 PM 33.1 °F 28.7 °F 23.0 °F 66% 29.67 in 10.0 mi WNW 4.6 mph - N/A   Overcast
2:52 PM 32.0 °F 25.6 °F 24.1 °F 73% 29.68 in 10.0 mi North 6.9 mph - 0.00 in Snow Light Snow
3:52 PM 30.0 °F 24.1 °F 24.1 °F 79% 29.69 in 4.0 mi NNW 5.8 mph - 0.00 in Snow Light Snow
4:26 PM 28.4 °F 22.2 °F 24.8 °F 86% 29.66 in 2.5 mi NW 5.8 mph - 0.00 in Snow Light Snow
4:34 PM 28.4 °F 23.3 °F 24.8 °F 86% 29.66 in 3.0 mi NW 4.6 mph - 0.00 in Snow Light Snow
4:52 PM 28.9 °F 25.2 °F 24.1 °F 82% 29.70 in 3.0 mi West 3.5 mph - 0.00 in Snow Light Snow
5:36 PM 28.4 °F 24.6 °F 24.8 °F 86% 29.67 in 2.5 mi NW 3.5 mph - 0.01 in Snow Light Snow
5:43 PM 28.4 °F 24.6 °F 24.8 °F 86% 29.67 in 5.0 mi WNW 3.5 mph - 0.01 in Snow Light Snow
5:52 PM 28.0 °F 24.2 °F 24.1 °F 85% 29.72 in 5.0 mi WNW 3.5 mph - 0.01 in Snow Light Snow
6:02 PM 28.4 °F - 24.8 °F 86% 29.68 in 6.0 mi Calm Calm - 0.00 in Snow Light Snow
6:52 PM 28.0 °F - 24.1 °F 85% 29.73 in 6.0 mi Calm Calm - 0.00 in Snow Light Snow
7:07 PM 28.4 °F - 24.8 °F 86% 29.68 in 5.0 mi Calm Calm - 0.00 in Snow Light Snow
7:52 PM 28.0 °F - 24.1 °F 85% 29.73 in 6.0 mi Calm Calm - 0.01 in Snow Light Snow
8:01 PM 28.4 °F - 24.8 °F 86% 29.68 in 3.0 mi Calm Calm - 0.00 in Snow Light Snow
8:32 PM 26.6 °F - 24.8 °F 93% 29.68 in 5.0 mi Calm Calm - 0.01 in Snow Light Snow
8:42 PM 26.6 °F - 24.8 °F 93% 29.68 in 8.0 mi Calm Calm - 0.01 in Snow Light Snow
8:49 PM 26.6 °F - 24.8 °F 93% 29.68 in 6.0 mi Calm Calm - 0.01 in Snow Light Snow
8:52 PM 27.0 °F - 24.1 °F 89% 29.73 in 5.0 mi Calm Calm - 0.01 in Snow Light Snow
8:57 PM 26.6 °F - 24.8 °F 93% 29.68 in 4.0 mi Calm Calm - 0.00 in Snow Light Snow
9:11 PM 26.6 °F - 24.8 °F 93% 29.67 in 7.0 mi Calm Calm - 0.00 in Snow Light Snow
9:18 PM 26.6 °F 22.6 °F 24.8 °F 93% 29.67 in 9.0 mi West 3.5 mph - 0.00 in Snow Light Snow
9:41 PM 26.6 °F 22.6 °F 23.0 °F 86% 29.67 in 2.0 mi West 3.5 mph - 0.01 in Snow Light Snow
9:52 PM 27.0 °F 23.0 °F 23.0 °F 85% 29.71 in 2.0 mi West 3.5 mph - 0.01 in Snow Light Snow
10:11 PM 26.6 °F 22.6 °F 23.0 °F 86% 29.67 in 3.0 mi West 3.5 mph - 0.01 in Snow Light Snow
10:25 PM 26.6 °F - 23.0 °F 86% 29.67 in 6.0 mi Calm Calm - 0.01 in Snow Light Snow
10:52 PM 26.1 °F - 23.0 °F 88% 29.71 in 5.0 mi Calm Calm - 0.01 in Snow Light Snow
11:52 PM 26.1 °F - 23.0 °F 88% 29.70 in 5.0 mi Calm Calm - 0.00 in Snow Light Snow